Location: Chuathbaluk
(61.5726°N, 159.2454°W)
Time: 13:11:17
(UTC+00:00)

NOAA 15 - Pass Details

Date: 23 January 2021
Orbit: 798 x 812 km, 98.7° (Epoch: 01 March)

Event Time Altitude Azimuth Distance (km) Brightness Sun altitude
Rises 16:54:58 0° 21° (NNE) 3,343 7.9 -16.2°
Reaches altitude 10° 16:58:03 10° 40° (NE) 2,409 7.4 -15.8°
Maximum altitude 17:01:44 19° 84° (E) 1,874 7.5 -15.4°
Drops below altitude 10° 17:05:24 10° 128° (SE) 2,402 8.1 -15.0°
Sets 17:08:28 0° 146° (SE) 3,330 8.6 -14.6°
